weather.gov     
National Weather Service

Weather Roundup
NWS Homepage
This page is being discontinued on March 12, 2014.
The same data is available at this site. Please update your bookmarks.
Thank you, and we apologize for the inconvenience.
Please send an email to SR-SRH.Webmaster@noaa.gov with any concerns.


Current Version
Previous Version:    01  02  03  04  05  06  07  08  09  10  11  12  13  14  15  16  17  18  19  20  21  22  23  24  25  26  27  28  29  30  
   31  32  33  34  35  36  37  38  39  40  41  42  43  44  45  46  47  48  49  50  51  52  53  54  55  56  57  58  59  60  
[Printable]
758
NZUS93 KARX 240010
HRRWXR

CURRENT HOURLY OBSERVATIONS ACROSS
MUCH OF THE UPPER MISSISSIPPI VALLEY
NATIONAL WEATHER SERVICE LA CROSSE WI
700 PM CDT WED JUL 23 2014


...SOUTHEAST MINNESOTA...


CITY           SKY/WX    TMP DP  RH WIND       PRES   REMARKS
ROCHESTER      SUNNY     76  54  46 NW9       30.19F
ROCHESTER/MAYO FAIR      78  47  34 NW8       30.18S
WINONA         MOSUNNY   79  55  44 N5        30.15F
AUSTIN         SUNNY     79  48  34 N7        30.17F
ALBERT LEA     SUNNY     77  52  41 CALM      30.18F
DODGE CENTER   SUNNY     75  57  53 N5        30.18F
PRESTON        SUNNY     73  60  64 N6        30.18F
OWATONNA       SUNNY     77  52  41 NW6       30.18F
FARIBAULT      SUNNY     81  45  28 N5        30.18F
$$

...ELSEWHERE IN MINNESOTA...


CITY           SKY/WX    TMP DP  RH WIND       PRES   REMARKS
MINNEAPOLIS    MOSUNNY   79  48  33 W6        30.17F
INTNL FALLS    MOSUNNY   71  50  47 NE5       30.21F
DULUTH         MOSUNNY   72  54  53 CALM      30.20S
RED WING       SUNNY     79  52  38 CALM      30.15F
REDWOOD FALLS  SUNNY     80  54  40 N6        30.19F
MANKATO        MOSUNNY   79  52  38 NW9       30.18F
WORTHINGTON    SUNNY     77  54  44 N9        30.22S
FAIRMONT       SUNNY     79  54  41 N7        30.19F
$$

...SOUTHWEST WISCONSIN...


CITY           SKY/WX    TMP DP  RH WIND       PRES   REMARKS
LA CROSSE      MOSUNNY   80  56  43 NW9       30.14F
PRAIRIE DU CHI SUNNY     78  51  38 N8        30.13F
BOSCOBEL       MOSUNNY   79  56  45 NE5       30.13F
LONE ROCK      CLOUDY    82  57  42 N5        30.13F
PLATTEVILLE    SUNNY     75  54  48 N6        30.16S
FORT MC COY    MOSUNNY   76  54  46 NW3       30.15F
CAMP DOUGLAS   MOSUNNY   77  59  53 N7        30.14F
VIROQUA        FAIR      74  59  58 NW3       30.17S
WIS DELLS      MOSUNNY   73  53  48 NE5       30.14F
$$

...ELSEWHERE IN WISCONSIN...


CITY           SKY/WX    TMP DP  RH WIND       PRES   REMARKS
MILWAUKEE      MOSUNNY   63  52  67 NE10      30.17S
MADISON        PTSUNNY   75  55  49 NE8       30.14S
GREEN BAY      SUNNY     70  51  51 NE9       30.16S
EAU CLAIRE     SUNNY     78  54  43 NE9       30.15F
BLACK RVR FLS  FAIR      79  49  34 NW5       30.15S
MEDFORD        MOSUNNY   72  52  50 N8        30.18S
WAUSAU         SUNNY     73  52  47 VRB6      30.15F
WIS RAPIDS     MOSUNNY   76  53  44 N8        30.16F
MARSHFIELD     MOSUNNY   75  54  47 N9        30.16F
RICE LAKE      SUNNY     76  51  41 N7        30.20S
$$

...NORTHEAST IOWA...


CITY           SKY/WX    TMP DP  RH WIND       PRES   REMARKS
WATERLOO       SUNNY     78  55  44 NE8       30.14F
DUBUQUE        SUNNY     75  57  53 N7        30.15S
DECORAH        SUNNY     75  57  53 N6        30.16S
MASON CITY     SUNNY     78  57  48 N9        30.18F
CHARLES CITY   MOSUNNY   75  57  53 N5        30.17F
OELWEIN        SUNNY     77  57  50 N6        30.16F
$$

...ELSEWHERE IN IOWA...


CITY           SKY/WX    TMP DP  RH WIND       PRES   REMARKS
DES MOINES     MOSUNNY   80  56  43 NE12      30.14F
IOWA CITY      SUNNY     77  57  50 NE12      30.14F
FORT DODGE     SUNNY     79  57  47 NE3       30.18S
MARSHALLTOWN   SUNNY     77  58  51 N7        30.15F
CEDAR RAPIDS   SUNNY     77  56  48 N8        30.13F
$$

...NORTHERN ILLINOIS...


CITY           SKY/WX    TMP DP  RH WIND       PRES   REMARKS
CHICAGO-OHARE  MOSUNNY   67  49  52 NE15G25   30.15S
DUPAGE         SUNNY     68  54  60 NE15      30.14R
CHICAGO-MIDWAY MOSUNNY   68  52  56 N18       30.14S
MOLINE         SUNNY     77  54  44 N9        30.11F
ROCKFORD       MOSUNNY   75  52  44 N15       30.14S
STERLING       SUNNY     75  55  50 NE9       30.13S
PEORIA         MOSUNNY   77  55  46 N7        30.11R
$$

NOTE: "FAIR" INDICATES FEW OR NO CLOUDS BELOW 12,000 FEET WITH NO
SIGNIFICANT WEATHER AND/OR OBSTRUCTIONS TO VISIBILITY. WIND
SPEEDS ARE IN MILES-PER-HOUR.




U.S. Dept. of Commerce
NOAA National Weather Service
1325 East West Highway
Silver Spring, MD 20910
E-mail: w-nws.webmaster@noaa.gov
Page last modified: May 16, 2007
NATIONAL WEATHER SERVICE: for Safety, for Work, for Fun - FOR LIFE